Eveleth, MN

2:25 PM CST on January 24, 2017 (GMT -0600)
Eveleth-Virginia Municipal

Weather History for KEVM - April, 2013

Change the Weather History Date:

Monday, April 22, 2013

  Actual Average Record
Temperature  
Mean Temperature 34 °F -  
Max Temperature 37 °F 54 °F 79 °F (1990)
Min Temperature 30 °F 28 °F 21 °F (1997)
Degree Days  
Heating Degree Days 32    
Moisture  
Dew Point 25 °F    
Average Humidity 71    
Maximum Humidity 94    
Minimum Humidity 54    
Precipitation  
Precipitation 0.00 in - - ()
Sea Level Pressure  
Sea Level Pressure 30.18 in    
Wind  
Wind Speed 6 mph (NW)    
Max Wind Speed 13 mph    
Max Gust Speed 18 mph    
Visibility 10 miles    
Events      
Averages and records for this station are not official NWS values.
T = Trace of Precipitation, MM = Missing Value Source: NWS Daily Summary

Daily Weather History Graph

Daily Weather History Graph

Search for Another Location

Airport or City:

Trip Planner

Search our weather history database for the weather conditions in past years. The results will help you decide how hot, cold, wet, or windy it might be!

Date:

Astronomy

Apr. 22, 2013 Rise Set
Actual Time 6:08 AM CDT 8:09 PM CDT
Civil Twilight 5:35 AM CDT 8:42 PM CDT
Nautical Twilight 4:54 AM CDT 9:23 PM CDT
Astronomical Twilight 4:09 AM CDT 10:09 PM CDT
Moon 4:47 PM CDT (4/22) 4:17 AM CDT (4/22)
Length of Visible Light 15h 07m
Length of Day
14h 01m
Waxing Gibbous, 88% of the Moon is Illuminated
Apr 22
Waxing Gibbous
Apr 25
Full
May 2
Last Quarter
May 9
New
May 17
First Quarter

Hourly Weather History & Observations

Time (CDT) Temp. Windchill Dew Point Humidity Pressure Visibility Wind Dir Wind Speed Gust Speed Precip Events Conditions
12:10 AM 33.8 °F 28.6 °F 32.4 °F 94% 30.06 in 5.0 mi West 5.8 mph - N/A   Overcast
12:29 AM 34.5 °F 27.9 °F 33.1 °F 94% 30.08 in 7.0 mi WNW 8.1 mph - N/A   Overcast
12:50 AM 34.9 °F 29.9 °F 32.9 °F 92% 30.08 in 10.0 mi WNW 5.8 mph - N/A   Overcast
1:10 AM 34.9 °F 29.9 °F 32.2 °F 90% 30.08 in 10.0 mi West 5.8 mph - N/A   Overcast
1:29 AM 34.9 °F 32.0 °F 32.0 °F 89% 30.08 in 10.0 mi West 3.5 mph - N/A   Overcast
1:50 AM 33.8 °F - 30.7 °F 89% 30.08 in 10.0 mi Calm Calm - N/A   Overcast
2:10 AM 32.7 °F - 30.9 °F 93% 30.08 in 10.0 mi Calm Calm - N/A   Overcast
2:29 AM 32.9 °F 29.8 °F 31.1 °F 93% 30.09 in 10.0 mi West 3.5 mph - N/A   Overcast
2:50 AM 33.8 °F 28.6 °F 31.3 °F 90% 30.10 in 10.0 mi West 5.8 mph - N/A   Overcast
3:09 AM 33.8 °F 24.8 °F 30.6 °F 88% 30.10 in 10.0 mi WNW 12.7 mph 18.4 mph N/A   Overcast
3:30 AM 32.2 °F 23.8 °F 26.1 °F 78% 30.11 in 10.0 mi WNW 10.4 mph - N/A   Mostly Cloudy
3:50 AM 32.2 °F 27.7 °F 25.9 °F 78% 30.12 in 10.0 mi West 4.6 mph - N/A   Scattered Clouds
4:09 AM 32.2 °F 27.7 °F 27.5 °F 83% 30.13 in 10.0 mi West 4.6 mph - N/A   Clear
4:30 AM 32.2 °F 27.7 °F 28.2 °F 85% 30.14 in 10.0 mi West 4.6 mph - N/A   Scattered Clouds
4:50 AM 32.2 °F 26.7 °F 27.7 °F 83% 30.15 in 10.0 mi West 5.8 mph - N/A   Overcast
5:09 AM 32.2 °F 28.9 °F 27.5 °F 83% 30.14 in 10.0 mi WNW 3.5 mph - N/A   Overcast
5:30 AM 32.2 °F 26.7 °F 27.9 °F 84% 30.14 in 10.0 mi WNW 5.8 mph - N/A   Scattered Clouds
5:50 AM 30.6 °F 25.8 °F 26.8 °F 86% 30.17 in 10.0 mi West 4.6 mph - N/A   Clear
6:09 AM 30.0 °F 25.2 °F 26.8 °F 88% 30.16 in 10.0 mi WNW 4.6 mph - N/A   Clear
6:30 AM 30.0 °F 25.2 °F 27.0 °F 88% 30.18 in 10.0 mi West 4.6 mph - N/A   Clear
6:49 AM 30.0 °F 25.2 °F 27.1 °F 89% 30.18 in 10.0 mi WNW 4.6 mph - N/A   Clear
7:09 AM 30.0 °F 25.2 °F 27.1 °F 89% 30.18 in 10.0 mi NW 4.6 mph - N/A   Clear
7:30 AM 30.0 °F 22.4 °F 26.6 °F 87% 30.20 in 10.0 mi WNW 8.1 mph - N/A   Clear
7:49 AM 32.2 °F 24.4 °F 27.9 °F 84% 30.20 in 10.0 mi WNW 9.2 mph - N/A   Mostly Cloudy
8:09 AM 32.2 °F 26.7 °F 27.5 °F 83% 30.20 in 10.0 mi NW 5.8 mph - N/A   Mostly Cloudy
8:30 AM 32.2 °F 25.0 °F 26.6 °F 80% 30.21 in 10.0 mi WNW 8.1 mph - N/A   Mostly Cloudy
8:49 AM 32.2 °F 23.2 °F 25.2 °F 75% 30.20 in 10.0 mi NNW 11.5 mph - N/A   Scattered Clouds
9:09 AM 32.2 °F 25.8 °F 24.8 °F 74% 30.20 in 10.0 mi NNW 6.9 mph - N/A   Clear
9:30 AM 32.2 °F 25.8 °F 24.6 °F 74% 30.21 in 10.0 mi NNW 6.9 mph - N/A   Clear
9:49 AM 32.2 °F 23.8 °F 23.5 °F 70% 30.21 in 10.0 mi NNW 10.4 mph - N/A   Clear
10:10 AM 32.2 °F 25.8 °F 23.7 °F 71% 30.22 in 10.0 mi NW 6.9 mph - N/A   Scattered Clouds
10:29 AM 32.2 °F 25.0 °F 23.9 °F 72% 30.23 in 10.0 mi NW 8.1 mph - N/A   Mostly Cloudy
10:49 AM 32.2 °F 25.8 °F 23.7 °F 71% 30.22 in 10.0 mi NNW 6.9 mph - N/A   Overcast
11:10 AM 32.2 °F 26.7 °F 22.8 °F 68% 30.23 in 10.0 mi NW 5.8 mph - N/A   Overcast
11:29 AM 32.2 °F 24.4 °F 22.3 °F 67% 30.23 in 10.0 mi NNW 9.2 mph - N/A   Overcast
11:49 AM 33.8 °F 28.6 °F 22.6 °F 64% 30.23 in 10.0 mi NNW 5.8 mph - N/A   Overcast
12:10 PM 33.8 °F 27.0 °F 22.5 °F 63% 30.23 in 10.0 mi NW 8.1 mph - N/A   Overcast
12:29 PM 34.0 °F 28.8 °F 22.5 °F 63% 30.24 in 10.0 mi NNW 5.8 mph - N/A   Overcast
12:49 PM 34.7 °F 28.1 °F 23.5 °F 64% 30.25 in 10.0 mi WNW 8.1 mph - N/A   Overcast
1:10 PM 34.9 °F 28.3 °F 22.3 °F 60% 30.25 in 10.0 mi WNW 8.1 mph - N/A   Overcast
1:29 PM 34.9 °F 28.3 °F 21.9 °F 59% 30.24 in 10.0 mi NNW 8.1 mph - N/A   Overcast
1:49 PM 34.9 °F 28.3 °F 21.4 °F 58% 30.23 in 10.0 mi NW 8.1 mph - N/A   Overcast
2:10 PM 37.4 °F 31.4 °F 22.8 °F 56% 30.22 in 10.0 mi North 8.1 mph 17.3 mph N/A   Overcast
2:29 PM 37.4 °F 31.4 °F 22.8 °F 56% 30.21 in 10.0 mi NW 8.1 mph - N/A   Mostly Cloudy
2:49 PM 37.4 °F 30.8 °F 23.0 °F 56% 30.22 in 10.0 mi WNW 9.2 mph - N/A   Mostly Cloudy
3:10 PM 37.4 °F 32.8 °F 21.9 °F 54% 30.21 in 10.0 mi North 5.8 mph - N/A   Overcast
3:29 PM 37.4 °F 32.8 °F 21.9 °F 54% 30.21 in 10.0 mi NNW 5.8 mph - N/A   Overcast
3:49 PM 37.4 °F 32.8 °F 21.9 °F 54% 30.20 in 10.0 mi North 5.8 mph - N/A   Overcast
4:10 PM 37.4 °F 32.1 °F 22.8 °F 56% 30.20 in 10.0 mi North 6.9 mph - N/A   Overcast
4:29 PM 37.4 °F 32.8 °F 22.8 °F 56% 30.20 in 10.0 mi NNW 5.8 mph - N/A   Overcast
4:49 PM 37.4 °F 31.4 °F 22.3 °F 54% 30.20 in 10.0 mi NNW 8.1 mph - N/A   Overcast
5:10 PM 37.4 °F 32.1 °F 23.0 °F 56% 30.20 in 10.0 mi North 6.9 mph - N/A   Overcast
5:30 PM 37.4 °F 32.8 °F 22.6 °F 55% 30.20 in 10.0 mi North 5.8 mph - N/A   Overcast
5:49 PM 37.4 °F 33.8 °F 22.5 °F 55% 30.19 in 10.0 mi NNE 4.6 mph - N/A   Overcast
6:09 PM 37.4 °F 32.8 °F 22.8 °F 56% 30.19 in 10.0 mi North 5.8 mph - N/A   Overcast
6:29 PM 37.4 °F 34.9 °F 22.1 °F 54% 30.20 in 10.0 mi North 3.5 mph - N/A   Overcast
6:50 PM 37.4 °F 34.9 °F 22.6 °F 55% 30.20 in 10.0 mi North 3.5 mph - N/A   Overcast
7:09 PM 37.4 °F - 23.0 °F 56% 30.20 in 10.0 mi Calm Calm - N/A   Overcast
7:29 PM 37.4 °F 34.9 °F 23.0 °F 56% 30.20 in 10.0 mi North 3.5 mph - N/A   Overcast
7:50 PM 37.0 °F 34.5 °F 22.5 °F 56% 30.21 in 10.0 mi North 3.5 mph - N/A   Overcast
8:09 PM 34.9 °F - 21.0 °F 57% 30.21 in 10.0 mi Calm Calm - N/A   Overcast
8:29 PM 34.9 °F - 21.2 °F 57% 30.21 in 10.0 mi Calm Calm - N/A   Overcast
8:50 PM 34.9 °F 30.8 °F 22.1 °F 60% 30.21 in 10.0 mi North 4.6 mph - N/A   Overcast
9:10 PM 34.7 °F 31.8 °F 22.8 °F 62% 30.21 in 10.0 mi North 3.5 mph - N/A   Overcast
9:29 PM 33.8 °F 30.8 °F 21.9 °F 62% 30.21 in 10.0 mi North 3.5 mph - N/A   Overcast
9:50 PM 33.6 °F 30.6 °F 22.1 °F 63% 30.20 in 10.0 mi North 3.5 mph - N/A   Overcast
10:10 PM 32.7 °F 27.3 °F 21.9 °F 64% 30.19 in 10.0 mi North 5.8 mph - N/A   Overcast
10:29 PM 32.2 °F 26.7 °F 21.7 °F 65% 30.19 in 10.0 mi North 5.8 mph - N/A   Overcast
10:50 PM 32.2 °F 26.7 °F 21.7 °F 65% 30.18 in 10.0 mi NNE 5.8 mph - N/A   Overcast
11:09 PM 32.2 °F 28.9 °F 21.6 °F 65% 30.18 in 10.0 mi North 3.5 mph - N/A   Overcast
11:29 PM 32.2 °F 28.9 °F 21.4 °F 64% 30.18 in 10.0 mi North 3.5 mph - N/A   Overcast
11:50 PM 32.2 °F 27.7 °F 21.6 °F 65% 30.17 in 10.0 mi North 4.6 mph - N/A   Overcast